Year,Month,Day,Hour,Minute,Value (Times are PST for temperature in C)
2016,08,17,00,00,13.20
2016,08,17,00,01,13.20
2016,08,17,00,02,13.20
2016,08,17,00,03,13.20
2016,08,17,00,04,13.20
2016,08,17,00,05,13.20
2016,08,17,00,06,13.20
2016,08,17,00,07,13.20
2016,08,17,00,08,13.20
2016,08,17,00,09,13.20
2016,08,17,00,10,13.10
2016,08,17,00,11,13.10
2016,08,17,00,12,13.10
2016,08,17,00,13,13.10
2016,08,17,00,14,13.10
2016,08,17,00,15,13.10
2016,08,17,00,16,13.10
2016,08,17,00,17,13.10
2016,08,17,00,18,13.10
2016,08,17,00,19,13.00
2016,08,17,00,20,13.00
2016,08,17,00,21,13.00
2016,08,17,00,22,13.00
2016,08,17,00,23,13.00
2016,08,17,00,24,12.90
2016,08,17,00,25,12.90
2016,08,17,00,26,12.90
2016,08,17,00,27,12.90
2016,08,17,00,28,12.90
2016,08,17,00,29,12.90
2016,08,17,00,30,12.90
2016,08,17,00,31,12.90
2016,08,17,00,32,12.90
2016,08,17,00,33,12.90
2016,08,17,00,34,12.80
2016,08,17,00,35,12.80
2016,08,17,00,36,12.80
2016,08,17,00,37,12.80
2016,08,17,00,38,12.80
2016,08,17,00,39,12.80
2016,08,17,00,40,12.80
2016,08,17,00,41,12.80
2016,08,17,00,42,12.80
2016,08,17,00,43,12.70
2016,08,17,00,44,12.70
2016,08,17,00,45,12.70
2016,08,17,00,46,12.70
2016,08,17,00,47,12.70
2016,08,17,00,48,12.70
2016,08,17,00,49,12.70
2016,08,17,00,50,12.70
2016,08,17,00,51,12.70
2016,08,17,00,52,12.70
2016,08,17,00,53,12.70
2016,08,17,00,54,12.60
2016,08,17,00,55,12.60
2016,08,17,00,56,12.60
2016,08,17,00,57,12.60
2016,08,17,00,58,12.60
2016,08,17,00,59,12.60
2016,08,17,01,00,12.60
2016,08,17,01,01,12.50
2016,08,17,01,02,12.50
2016,08,17,01,03,12.50
2016,08,17,01,04,12.50
2016,08,17,01,05,12.50
2016,08,17,01,06,12.40
2016,08,17,01,07,12.40
2016,08,17,01,08,12.40
2016,08,17,01,09,12.40
2016,08,17,01,10,12.40
2016,08,17,01,11,12.40
2016,08,17,01,12,12.40
2016,08,17,01,13,12.40
2016,08,17,01,14,12.30
2016,08,17,01,15,12.30
2016,08,17,01,16,12.30
2016,08,17,01,17,12.30
2016,08,17,01,18,12.30
2016,08,17,01,19,12.30
2016,08,17,01,20,12.30
2016,08,17,01,21,12.30
2016,08,17,01,22,12.20
2016,08,17,01,23,12.20
2016,08,17,01,24,12.20
2016,08,17,01,25,12.20
2016,08,17,01,26,12.20
2016,08,17,01,27,12.10
2016,08,17,01,28,12.10
2016,08,17,01,29,12.10
2016,08,17,01,30,12.10
2016,08,17,01,31,12.10
2016,08,17,01,32,12.10
2016,08,17,01,33,12.10
2016,08,17,01,34,12.10
2016,08,17,01,35,12.00
2016,08,17,01,36,12.00
2016,08,17,01,37,12.00
2016,08,17,01,38,12.00
2016,08,17,01,39,11.90
2016,08,17,01,40,11.90
2016,08,17,01,41,11.90
2016,08,17,01,42,11.90
2016,08,17,01,43,11.90
2016,08,17,01,44,11.90
2016,08,17,01,45,11.80
2016,08,17,01,46,11.80
2016,08,17,01,47,11.80
2016,08,17,01,48,11.80
2016,08,17,01,49,11.80
2016,08,17,01,50,11.80
2016,08,17,01,51,11.80
2016,08,17,01,52,11.80
2016,08,17,01,53,11.80
2016,08,17,01,54,11.80
2016,08,17,01,55,11.80
2016,08,17,01,56,11.80
2016,08,17,01,57,11.80
2016,08,17,01,58,11.80
2016,08,17,01,59,11.80
2016,08,17,02,00,11.80
2016,08,17,02,01,11.80
2016,08,17,02,02,11.80
2016,08,17,02,03,11.80
2016,08,17,02,04,11.80
2016,08,17,02,05,11.80
2016,08,17,02,06,11.80
2016,08,17,02,07,11.80
2016,08,17,02,08,11.80
2016,08,17,02,09,11.80
2016,08,17,02,10,11.80
2016,08,17,02,11,11.80
2016,08,17,02,12,11.80
2016,08,17,02,13,11.80
2016,08,17,02,14,11.80
2016,08,17,02,15,11.80
2016,08,17,02,16,11.70
2016,08,17,02,17,11.70
2016,08,17,02,18,11.70
2016,08,17,02,19,11.60
2016,08,17,02,20,11.60
2016,08,17,02,21,11.60
2016,08,17,02,22,11.60
2016,08,17,02,23,11.50
2016,08,17,02,24,11.50
2016,08,17,02,25,11.50
2016,08,17,02,26,11.40
2016,08,17,02,27,11.40
2016,08,17,02,28,11.40
2016,08,17,02,29,11.40
2016,08,17,02,30,11.40
2016,08,17,02,31,11.40
2016,08,17,02,32,11.40
2016,08,17,02,33,11.40
2016,08,17,02,34,11.40
2016,08,17,02,35,11.30
2016,08,17,02,36,11.30
2016,08,17,02,37,11.30
2016,08,17,02,38,11.30
2016,08,17,02,39,11.30
2016,08,17,02,40,11.30
2016,08,17,02,41,11.30
2016,08,17,02,42,11.20
2016,08,17,02,43,11.30
2016,08,17,02,44,11.30
2016,08,17,02,45,11.30
2016,08,17,02,46,11.30
2016,08,17,02,47,11.30
2016,08,17,02,48,11.30
2016,08,17,02,49,11.30
2016,08,17,02,50,11.30
2016,08,17,02,51,11.20
2016,08,17,02,52,11.20
2016,08,17,02,53,11.20
2016,08,17,02,54,11.20
2016,08,17,02,55,11.20
2016,08,17,02,56,11.20
2016,08,17,02,57,11.10
2016,08,17,02,58,11.10
2016,08,17,02,59,11.10
2016,08,17,03,00,11.10
2016,08,17,03,01,11.10
2016,08,17,03,02,11.00
2016,08,17,03,03,11.00
2016,08,17,03,04,11.00
2016,08,17,03,05,11.00
2016,08,17,03,06,10.90
2016,08,17,03,07,10.90
2016,08,17,03,08,10.90
2016,08,17,03,09,10.90
2016,08,17,03,10,10.90
2016,08,17,03,11,10.80
2016,08,17,03,12,10.80
2016,08,17,03,13,10.80
2016,08,17,03,14,10.80
2016,08,17,03,15,10.80
2016,08,17,03,16,10.80
2016,08,17,03,17,10.80
2016,08,17,03,18,10.80
2016,08,17,03,19,10.70
2016,08,17,03,20,10.70
2016,08,17,03,21,10.70
2016,08,17,03,22,10.70
2016,08,17,03,23,10.70
2016,08,17,03,24,10.70
2016,08,17,03,25,10.70
2016,08,17,03,26,10.60
2016,08,17,03,27,10.60
2016,08,17,03,28,10.60
2016,08,17,03,29,10.60
2016,08,17,03,30,10.60
2016,08,17,03,31,10.60
2016,08,17,03,32,10.60
2016,08,17,03,33,10.60
2016,08,17,03,34,10.50
2016,08,17,03,35,10.50
2016,08,17,03,36,10.50
2016,08,17,03,37,10.50
2016,08,17,03,38,10.50
2016,08,17,03,39,10.50
2016,08,17,03,40,10.50
2016,08,17,03,41,10.40
2016,08,17,03,42,10.40
2016,08,17,03,43,10.50
2016,08,17,03,44,10.50
2016,08,17,03,45,10.50
2016,08,17,03,46,10.50
2016,08,17,03,47,10.50
2016,08,17,03,48,10.60
2016,08,17,03,49,10.60
2016,08,17,03,50,10.60
2016,08,17,03,51,10.60
2016,08,17,03,52,10.50
2016,08,17,03,53,10.50
2016,08,17,03,54,10.50
2016,08,17,03,55,10.40
2016,08,17,03,56,10.40
2016,08,17,03,57,10.40
2016,08,17,03,58,10.40
2016,08,17,03,59,10.40
2016,08,17,04,00,10.40
2016,08,17,04,01,10.30
2016,08,17,04,02,10.30
2016,08,17,04,03,10.30
2016,08,17,04,04,10.30
2016,08,17,04,05,10.30
2016,08,17,04,06,10.30
2016,08,17,04,07,10.30
2016,08,17,04,08,10.30
2016,08,17,04,09,10.30
2016,08,17,04,10,10.30
2016,08,17,04,11,10.30
2016,08,17,04,12,10.30
2016,08,17,04,13,10.30
2016,08,17,04,14,10.20
2016,08,17,04,15,10.20
2016,08,17,04,16,10.20
2016,08,17,04,17,10.30
2016,08,17,04,18,10.30
2016,08,17,04,19,10.20
2016,08,17,04,20,10.20
2016,08,17,04,21,10.20
2016,08,17,04,22,10.20
2016,08,17,04,23,10.10
2016,08,17,04,24,10.10
2016,08,17,04,25,10.10
2016,08,17,04,26,10.10
2016,08,17,04,27,10.10
2016,08,17,04,28,10.10
2016,08,17,04,29,10.10
2016,08,17,04,30,10.10
2016,08,17,04,31,10.10
2016,08,17,04,32,10.10
2016,08,17,04,33,10.10
2016,08,17,04,34,10.10
2016,08,17,04,35,10.00
2016,08,17,04,36,10.00
2016,08,17,04,37,10.10
2016,08,17,04,38,10.10
2016,08,17,04,39,10.10
2016,08,17,04,40,10.10
2016,08,17,04,41,10.10
2016,08,17,04,42,10.00
2016,08,17,04,43,10.00
2016,08,17,04,44,10.00
2016,08,17,04,45,10.00
2016,08,17,04,46,10.00
2016,08,17,04,47,10.00
2016,08,17,04,48,10.00
2016,08,17,04,49,10.00
2016,08,17,04,50,10.00
2016,08,17,04,51,10.00
2016,08,17,04,52,10.00
2016,08,17,04,53,10.00
2016,08,17,04,54,10.00
2016,08,17,04,55,9.90
2016,08,17,04,56,9.90
2016,08,17,04,57,9.90
2016,08,17,04,58,9.90
2016,08,17,04,59,9.90
2016,08,17,05,00,9.90
2016,08,17,05,01,9.90
2016,08,17,05,02,9.90
2016,08,17,05,03,10.00
2016,08,17,05,04,10.00
2016,08,17,05,05,10.00
2016,08,17,05,06,10.00
2016,08,17,05,07,10.00
2016,08,17,05,08,10.00
2016,08,17,05,09,10.00
2016,08,17,05,10,9.90
2016,08,17,05,11,9.90
2016,08,17,05,12,9.90
2016,08,17,05,13,9.80
2016,08,17,05,14,9.80
2016,08,17,05,15,9.80
2016,08,17,05,16,9.80
2016,08,17,05,17,9.80
2016,08,17,05,18,9.80
2016,08,17,05,19,9.80
2016,08,17,05,20,9.80
2016,08,17,05,21,9.80
2016,08,17,05,22,9.80
2016,08,17,05,23,9.80
2016,08,17,05,24,9.80
2016,08,17,05,25,9.80
2016,08,17,05,26,9.80
2016,08,17,05,27,9.80
2016,08,17,05,28,9.90
2016,08,17,05,29,9.90
2016,08,17,05,30,10.00
2016,08,17,05,31,10.00
2016,08,17,05,32,10.10
2016,08,17,05,33,10.10
2016,08,17,05,34,10.20
2016,08,17,05,35,10.20
2016,08,17,05,36,10.30
2016,08,17,05,37,10.40
2016,08,17,05,38,10.50
2016,08,17,05,39,10.60
2016,08,17,05,40,10.70
2016,08,17,05,41,10.60
2016,08,17,05,42,10.60
2016,08,17,05,43,10.50
2016,08,17,05,44,10.40
2016,08,17,05,45,10.30
2016,08,17,05,46,10.30
2016,08,17,05,47,10.20
2016,08,17,05,48,10.20
2016,08,17,05,49,10.20
2016,08,17,05,50,10.10
2016,08,17,05,51,10.10
2016,08,17,05,52,10.10
2016,08,17,05,53,10.10
2016,08,17,05,54,10.10
2016,08,17,05,55,10.10
2016,08,17,05,56,10.10
2016,08,17,05,57,10.10
2016,08,17,05,58,10.10
2016,08,17,05,59,10.10
2016,08,17,06,00,10.10
2016,08,17,06,01,10.10
2016,08,17,06,02,10.10
2016,08,17,06,03,10.10
2016,08,17,06,04,10.10
2016,08,17,06,05,10.10
2016,08,17,06,06,10.10
2016,08,17,06,07,10.10
2016,08,17,06,08,10.10
2016,08,17,06,09,10.10
2016,08,17,06,10,10.20
2016,08,17,06,11,10.20
2016,08,17,06,12,10.20
2016,08,17,06,13,10.20
2016,08,17,06,14,10.20
2016,08,17,06,15,10.20
2016,08,17,06,16,10.20
2016,08,17,06,17,10.20
2016,08,17,06,18,10.20
2016,08,17,06,19,10.20
2016,08,17,06,20,10.20
2016,08,17,06,21,10.20
2016,08,17,06,22,10.20
2016,08,17,06,23,10.20
2016,08,17,06,24,10.20
2016,08,17,06,25,10.20
2016,08,17,06,26,10.20
2016,08,17,06,27,10.20
2016,08,17,06,28,10.20
2016,08,17,06,29,10.20
2016,08,17,06,30,10.20
2016,08,17,06,31,10.20
2016,08,17,06,32,10.20
2016,08,17,06,33,10.20
2016,08,17,06,34,10.20
2016,08,17,06,35,10.20
2016,08,17,06,36,10.10
2016,08,17,06,37,10.10
2016,08,17,06,38,10.10
2016,08,17,06,39,10.10
2016,08,17,06,40,10.10
2016,08,17,06,41,10.10
2016,08,17,06,42,10.10
2016,08,17,06,43,10.00
2016,08,17,06,44,10.00
2016,08,17,06,45,10.00
2016,08,17,06,46,10.00
2016,08,17,06,47,9.90
2016,08,17,06,48,9.90
2016,08,17,06,49,9.90
2016,08,17,06,50,9.90
2016,08,17,06,51,9.90
2016,08,17,06,52,10.00
2016,08,17,06,53,10.00
2016,08,17,06,54,10.00
2016,08,17,06,55,10.10
2016,08,17,06,56,10.10
2016,08,17,06,57,10.10
2016,08,17,06,58,10.20
2016,08,17,06,59,10.20
2016,08,17,07,00,10.20
2016,08,17,07,01,10.30
2016,08,17,07,02,10.30
2016,08,17,07,03,10.30
2016,08,17,07,04,10.40
2016,08,17,07,05,10.40
2016,08,17,07,06,10.40
2016,08,17,07,07,10.50
2016,08,17,07,08,10.50
2016,08,17,07,09,10.60
2016,08,17,07,10,10.60
2016,08,17,07,11,10.70
2016,08,17,07,12,10.70
2016,08,17,07,13,10.80
2016,08,17,07,14,10.80
2016,08,17,07,15,10.90
2016,08,17,07,16,10.90
2016,08,17,07,17,10.90
2016,08,17,07,18,11.00
2016,08,17,07,19,11.00
2016,08,17,07,20,11.10
2016,08,17,07,21,11.10
2016,08,17,07,22,11.10
2016,08,17,07,23,11.10
2016,08,17,07,24,11.10
2016,08,17,07,25,11.10
2016,08,17,07,26,11.10
2016,08,17,07,27,11.10
2016,08,17,07,28,11.00
2016,08,17,07,29,11.00
2016,08,17,07,30,11.00
2016,08,17,07,31,10.90
2016,08,17,07,32,10.90
2016,08,17,07,33,10.90
2016,08,17,07,34,10.90
2016,08,17,07,35,11.00
2016,08,17,07,36,11.00
2016,08,17,07,37,11.00
2016,08,17,07,38,10.90
2016,08,17,07,39,11.00
2016,08,17,07,40,10.90
2016,08,17,07,41,11.00
2016,08,17,07,42,11.00
2016,08,17,07,43,11.00
2016,08,17,07,44,11.00
2016,08,17,07,45,11.10
2016,08,17,07,46,11.00
2016,08,17,07,47,11.00
2016,08,17,07,48,11.10
2016,08,17,07,49,11.10
2016,08,17,07,50,11.10
2016,08,17,07,51,11.10
2016,08,17,07,52,11.10
2016,08,17,07,53,11.10
2016,08,17,07,54,11.20
2016,08,17,07,55,11.20
2016,08,17,07,56,11.20
2016,08,17,07,57,11.20
2016,08,17,07,58,11.20
2016,08,17,07,59,11.20
2016,08,17,08,00,11.30
2016,08,17,08,01,11.30
2016,08,17,08,02,11.40
2016,08,17,08,03,11.40
2016,08,17,08,04,11.50
2016,08,17,08,05,11.50
2016,08,17,08,06,11.60
2016,08,17,08,07,11.50
2016,08,17,08,08,11.50
2016,08,17,08,09,11.50
2016,08,17,08,10,11.50
2016,08,17,08,11,11.50
2016,08,17,08,12,11.50
2016,08,17,08,13,11.50
2016,08,17,08,14,11.60
2016,08,17,08,15,11.60
2016,08,17,08,16,11.60
2016,08,17,08,17,11.70
2016,08,17,08,18,11.70
2016,08,17,08,19,11.70
2016,08,17,08,20,11.70
2016,08,17,08,21,11.70
2016,08,17,08,22,11.70
2016,08,17,08,23,11.80
2016,08,17,08,24,11.80
2016,08,17,08,25,11.90
2016,08,17,08,26,11.90
2016,08,17,08,27,12.00
2016,08,17,08,28,12.00
2016,08,17,08,29,12.10
2016,08,17,08,30,12.20
2016,08,17,08,31,12.20
2016,08,17,08,32,12.30
2016,08,17,08,33,12.30
2016,08,17,08,34,12.40
2016,08,17,08,35,12.40
2016,08,17,08,36,12.40
2016,08,17,08,37,12.50
2016,08,17,08,38,12.60
2016,08,17,08,39,12.70
2016,08,17,08,40,12.70
2016,08,17,08,41,12.70
2016,08,17,08,42,12.80
2016,08,17,08,43,12.80
2016,08,17,08,44,12.80
2016,08,17,08,45,12.90
2016,08,17,08,46,12.90
2016,08,17,08,47,12.90
2016,08,17,08,48,13.00
2016,08,17,08,49,13.00
2016,08,17,08,50,13.10
2016,08,17,08,51,13.10
2016,08,17,08,52,13.10
2016,08,17,08,53,13.20
2016,08,17,08,54,13.30
2016,08,17,08,55,13.30
2016,08,17,08,56,13.40
2016,08,17,08,57,13.50
2016,08,17,08,58,13.60
2016,08,17,08,59,13.70
2016,08,17,09,00,13.80
2016,08,17,09,01,13.80
2016,08,17,09,02,14.00
2016,08,17,09,03,14.00
2016,08,17,09,04,14.10
2016,08,17,09,05,14.20
2016,08,17,09,06,14.20
2016,08,17,09,07,14.20
2016,08,17,09,08,14.30
2016,08,17,09,09,14.30
2016,08,17,09,10,14.30
2016,08,17,09,11,14.30
2016,08,17,09,12,14.30
2016,08,17,09,13,14.30
2016,08,17,09,14,14.30
2016,08,17,09,15,14.20
2016,08,17,09,16,14.20
2016,08,17,09,17,14.30
2016,08,17,09,18,14.30
2016,08,17,09,19,14.40
2016,08,17,09,20,14.50
2016,08,17,09,21,14.50
2016,08,17,09,22,14.60
2016,08,17,09,23,14.70
2016,08,17,09,24,14.70
2016,08,17,09,25,14.70
2016,08,17,09,26,14.80
2016,08,17,09,27,14.90
2016,08,17,09,28,14.90
2016,08,17,09,29,15.00
2016,08,17,09,30,15.10
2016,08,17,09,31,15.20
2016,08,17,09,32,15.20
2016,08,17,09,33,15.20
2016,08,17,09,34,15.20
2016,08,17,09,35,15.20
2016,08,17,09,36,15.20
2016,08,17,09,37,15.20
2016,08,17,09,38,15.30
2016,08,17,09,39,15.30
2016,08,17,09,40,15.40
2016,08,17,09,41,15.40
2016,08,17,09,42,15.50
2016,08,17,09,43,15.60
2016,08,17,09,44,15.70
2016,08,17,09,45,15.80
2016,08,17,09,46,15.90
2016,08,17,09,47,16.00
2016,08,17,09,48,16.20
2016,08,17,09,49,16.30
2016,08,17,09,50,16.50
2016,08,17,09,51,16.60
2016,08,17,09,52,16.60
2016,08,17,09,53,16.80
2016,08,17,09,54,16.80
2016,08,17,09,55,16.90
2016,08,17,09,56,16.90
2016,08,17,09,57,17.00
2016,08,17,09,58,17.00
2016,08,17,09,59,17.10
2016,08,17,10,00,17.10
2016,08,17,10,01,17.10
2016,08,17,10,02,17.20
2016,08,17,10,03,17.30
2016,08,17,10,04,17.30
2016,08,17,10,05,17.30
2016,08,17,10,06,17.40
2016,08,17,10,07,17.40
2016,08,17,10,08,17.50
2016,08,17,10,09,17.60
2016,08,17,10,10,17.60
2016,08,17,10,11,17.60
2016,08,17,10,12,17.60
2016,08,17,10,13,17.60
2016,08,17,10,14,17.70
2016,08,17,10,15,17.80
2016,08,17,10,16,17.80
2016,08,17,10,17,17.90
2016,08,17,10,18,18.00
2016,08,17,10,19,18.00
2016,08,17,10,20,18.00
2016,08,17,10,21,18.00
2016,08,17,10,22,18.10
2016,08,17,10,23,18.20
2016,08,17,10,24,18.20
2016,08,17,10,25,18.30
2016,08,17,10,26,18.30
2016,08,17,10,27,18.30
2016,08,17,10,28,18.30
2016,08,17,10,29,18.40
2016,08,17,10,30,18.50
2016,08,17,10,31,18.50
2016,08,17,10,32,18.60
2016,08,17,10,33,18.70
2016,08,17,10,34,18.70
2016,08,17,10,35,18.80
2016,08,17,10,36,19.00
2016,08,17,10,37,19.10
2016,08,17,10,38,19.20
2016,08,17,10,39,19.20
2016,08,17,10,40,19.30
2016,08,17,10,41,19.40
2016,08,17,10,42,19.60
2016,08,17,10,43,19.60
2016,08,17,10,44,19.70
2016,08,17,10,45,19.70
2016,08,17,10,46,19.70
2016,08,17,10,47,19.80
2016,08,17,10,48,19.80
2016,08,17,10,49,19.80
2016,08,17,10,50,19.80
2016,08,17,10,51,19.80
2016,08,17,10,52,19.70
2016,08,17,10,53,19.70
2016,08,17,10,54,19.70
2016,08,17,10,55,19.70
2016,08,17,10,56,19.80
2016,08,17,10,57,19.90
2016,08,17,10,58,19.90
2016,08,17,10,59,20.10
2016,08,17,11,00,20.10
2016,08,17,11,01,20.20
2016,08,17,11,02,20.20
2016,08,17,11,03,20.20
2016,08,17,11,04,20.30
2016,08,17,11,05,20.30
2016,08,17,11,06,20.20
2016,08,17,11,07,20.20
2016,08,17,11,08,20.20
2016,08,17,11,09,20.10
2016,08,17,11,10,20.10
2016,08,17,11,11,20.10
2016,08,17,11,12,20.00
2016,08,17,11,13,19.90
2016,08,17,11,14,19.80
2016,08,17,11,15,19.70
2016,08,17,11,16,19.60
2016,08,17,11,17,19.60
2016,08,17,11,18,19.60
2016,08,17,11,19,19.60
2016,08,17,11,20,19.60
2016,08,17,11,21,19.60
2016,08,17,11,22,19.60
2016,08,17,11,23,19.70
2016,08,17,11,24,19.70
2016,08,17,11,25,19.70
2016,08,17,11,26,19.70
2016,08,17,11,27,19.70
2016,08,17,11,28,19.70
2016,08,17,11,29,19.70
2016,08,17,11,30,19.60
2016,08,17,11,31,19.60
2016,08,17,11,32,19.60
2016,08,17,11,33,19.50
2016,08,17,11,34,19.40
2016,08,17,11,35,19.40
2016,08,17,11,36,19.50
2016,08,17,11,37,19.60
2016,08,17,11,38,19.60
2016,08,17,11,39,19.60
2016,08,17,11,40,19.60
2016,08,17,11,41,19.70
2016,08,17,11,42,19.70
2016,08,17,11,43,19.70
2016,08,17,11,44,19.70
2016,08,17,11,45,19.80
2016,08,17,11,46,19.80
2016,08,17,11,47,19.80
2016,08,17,11,48,19.80
2016,08,17,11,49,19.80
2016,08,17,11,50,19.90
2016,08,17,11,51,19.90
2016,08,17,11,52,20.00
2016,08,17,11,53,20.00
2016,08,17,11,54,19.90
2016,08,17,11,55,19.90
2016,08,17,11,56,19.90
2016,08,17,11,57,19.90
2016,08,17,11,58,19.90
2016,08,17,11,59,19.90
2016,08,17,12,00,19.80
2016,08,17,12,01,19.80
2016,08,17,12,02,19.80
2016,08,17,12,03,19.80
2016,08,17,12,04,19.90
2016,08,17,12,05,19.90
2016,08,17,12,06,19.90
2016,08,17,12,07,19.90
2016,08,17,12,08,20.00
2016,08,17,12,09,20.10
2016,08,17,12,10,20.10
2016,08,17,12,11,20.00
2016,08,17,12,12,20.00
2016,08,17,12,13,19.90
2016,08,17,12,14,19.80
2016,08,17,12,15,19.80
2016,08,17,12,16,19.80
2016,08,17,12,17,19.80
2016,08,17,12,18,20.00
2016,08,17,12,19,20.00
2016,08,17,12,20,19.90
2016,08,17,12,21,19.90
2016,08,17,12,22,19.90
2016,08,17,12,23,19.80
2016,08,17,12,24,19.90
2016,08,17,12,25,20.00
2016,08,17,12,26,20.00
2016,08,17,12,27,20.10
2016,08,17,12,28,20.10
2016,08,17,12,29,20.10
2016,08,17,12,30,20.10
2016,08,17,12,31,20.10
2016,08,17,12,32,20.20
2016,08,17,12,33,20.30
2016,08,17,12,34,20.50
2016,08,17,12,35,20.50
2016,08,17,12,36,20.60
2016,08,17,12,37,20.70
2016,08,17,12,38,20.80
2016,08,17,12,39,20.70
2016,08,17,12,40,20.60
2016,08,17,12,41,20.60
2016,08,17,12,42,20.60
2016,08,17,12,43,20.50
2016,08,17,12,44,20.50
2016,08,17,12,45,20.40
2016,08,17,12,46,20.40
2016,08,17,12,47,20.40
2016,08,17,12,48,20.40
2016,08,17,12,49,20.50
2016,08,17,12,50,20.60
2016,08,17,12,51,20.70
2016,08,17,12,52,20.80
2016,08,17,12,53,20.80
2016,08,17,12,54,20.90
2016,08,17,12,55,21.00
2016,08,17,12,56,21.20
2016,08,17,12,57,21.30
2016,08,17,12,58,21.40
2016,08,17,12,59,21.40
2016,08,17,13,00,21.50
2016,08,17,13,01,21.50
2016,08,17,13,02,21.40
2016,08,17,13,03,21.40
2016,08,17,13,04,21.40
2016,08,17,13,05,21.40
2016,08,17,13,06,21.40
2016,08,17,13,07,21.40
2016,08,17,13,08,21.30
2016,08,17,13,09,21.30
2016,08,17,13,10,21.30
2016,08,17,13,11,21.30
2016,08,17,13,12,21.30
2016,08,17,13,13,21.40
2016,08,17,13,14,21.50
2016,08,17,13,15,21.60
2016,08,17,13,16,21.60
2016,08,17,13,17,21.60
2016,08,17,13,18,21.60
2016,08,17,13,19,21.60
2016,08,17,13,20,21.60
2016,08,17,13,21,21.60
2016,08,17,13,22,21.70
2016,08,17,13,23,21.70
2016,08,17,13,24,21.80
2016,08,17,13,25,21.80
2016,08,17,13,26,21.80
2016,08,17,13,27,21.80
2016,08,17,13,28,21.80
2016,08,17,13,29,21.90
2016,08,17,13,30,22.00
2016,08,17,13,31,22.10
2016,08,17,13,32,22.20
2016,08,17,13,33,22.30
2016,08,17,13,34,22.30
2016,08,17,13,35,22.30
2016,08,17,13,36,22.30
2016,08,17,13,37,22.40
2016,08,17,13,38,22.50
2016,08,17,13,39,22.50
2016,08,17,13,40,22.60
2016,08,17,13,41,22.60
2016,08,17,13,42,22.50
2016,08,17,13,43,22.40
2016,08,17,13,44,22.30
2016,08,17,13,45,22.30
2016,08,17,13,46,22.30
2016,08,17,13,47,22.30
2016,08,17,13,48,22.30
2016,08,17,13,49,22.30
2016,08,17,13,50,22.40
2016,08,17,13,51,22.50
2016,08,17,13,52,22.50
2016,08,17,13,53,22.40
2016,08,17,13,54,22.40
2016,08,17,13,55,22.30
2016,08,17,13,56,22.30
2016,08,17,13,57,22.30
2016,08,17,13,58,22.30
2016,08,17,13,59,22.30
2016,08,17,14,00,22.30
2016,08,17,14,01,22.40
2016,08,17,14,02,22.40
2016,08,17,14,03,22.40
2016,08,17,14,04,22.20
2016,08,17,14,05,22.10
2016,08,17,14,06,22.00
2016,08,17,14,07,22.00
2016,08,17,14,08,22.00
2016,08,17,14,09,22.10
2016,08,17,14,10,22.10
2016,08,17,14,11,22.10
2016,08,17,14,12,22.10
2016,08,17,14,13,22.10
2016,08,17,14,14,22.10
2016,08,17,14,15,22.00
2016,08,17,14,16,21.90
2016,08,17,14,17,21.80
2016,08,17,14,18,21.70
2016,08,17,14,19,21.70
2016,08,17,14,20,21.60
2016,08,17,14,21,21.60
2016,08,17,14,22,21.50
2016,08,17,14,23,21.50
2016,08,17,14,24,21.50
2016,08,17,14,25,21.50
2016,08,17,14,26,21.60
2016,08,17,14,27,21.70
2016,08,17,14,28,21.60
2016,08,17,14,29,21.60
2016,08,17,14,30,21.60
2016,08,17,14,31,21.60
2016,08,17,14,32,21.60
2016,08,17,14,33,21.70
2016,08,17,14,34,21.80
2016,08,17,14,35,21.70
2016,08,17,14,36,21.70
2016,08,17,14,37,21.60
2016,08,17,14,38,21.70
2016,08,17,14,39,21.80
2016,08,17,14,40,21.90
2016,08,17,14,41,22.10
2016,08,17,14,42,22.20
2016,08,17,14,43,22.30
2016,08,17,14,44,22.40
2016,08,17,14,45,22.50
2016,08,17,14,46,22.50
2016,08,17,14,47,22.40
2016,08,17,14,48,22.40
2016,08,17,14,49,22.30
2016,08,17,14,50,22.20
2016,08,17,14,51,22.20
2016,08,17,14,52,22.20
2016,08,17,14,53,22.10
2016,08,17,14,54,22.10
2016,08,17,14,55,22.10
2016,08,17,14,56,22.20
2016,08,17,14,57,22.20
2016,08,17,14,58,22.20
2016,08,17,14,59,22.00
2016,08,17,15,00,21.90
2016,08,17,15,01,21.70
2016,08,17,15,02,21.70
2016,08,17,15,03,21.60
2016,08,17,15,04,21.50
2016,08,17,15,05,21.40
2016,08,17,15,06,21.30
2016,08,17,15,07,21.20
2016,08,17,15,08,21.20
2016,08,17,15,09,21.10
2016,08,17,15,10,21.00
2016,08,17,15,11,21.00
2016,08,17,15,12,21.00
2016,08,17,15,13,20.90
2016,08,17,15,30,21.30
2016,08,17,15,31,21.40
2016,08,17,15,32,21.50
2016,08,17,15,33,21.50
2016,08,17,15,34,21.50
2016,08,17,15,35,21.40
2016,08,17,15,36,21.30
2016,08,17,15,37,21.20
2016,08,17,15,38,21.10
2016,08,17,15,39,21.10
2016,08,17,15,40,21.00
2016,08,17,15,41,20.90
2016,08,17,15,42,20.70
2016,08,17,15,43,20.70
2016,08,17,15,44,20.70
2016,08,17,15,45,20.80
2016,08,17,15,46,20.80
2016,08,17,15,47,20.80
2016,08,17,15,48,20.80
2016,08,17,15,49,20.80
2016,08,17,15,50,20.90
2016,08,17,15,51,20.90
2016,08,17,15,52,20.90
2016,08,17,15,53,20.90
2016,08,17,15,54,20.90
2016,08,17,15,55,20.80
2016,08,17,15,56,20.80
2016,08,17,15,57,20.70
2016,08,17,15,58,20.70
2016,08,17,15,59,20.80
2016,08,17,16,00,20.70
2016,08,17,16,01,20.70
2016,08,17,16,02,20.80
2016,08,17,16,03,20.90
2016,08,17,16,04,20.90
2016,08,17,16,05,21.00
2016,08,17,16,06,21.10
2016,08,17,16,07,21.00
2016,08,17,16,08,21.10
2016,08,17,16,09,21.10
2016,08,17,16,10,21.20
2016,08,17,16,11,21.20
2016,08,17,16,12,21.30
2016,08,17,16,13,21.40
2016,08,17,16,14,21.50
2016,08,17,16,15,21.50
2016,08,17,16,16,21.50
2016,08,17,16,17,21.20
2016,08,17,16,18,21.00
2016,08,17,16,19,20.90
2016,08,17,16,20,20.80
2016,08,17,16,21,20.70
2016,08,17,16,22,20.60
2016,08,17,16,23,20.60
2016,08,17,16,24,20.70
2016,08,17,16,25,20.80
2016,08,17,16,26,20.80
2016,08,17,16,27,20.90
2016,08,17,16,28,21.10
2016,08,17,16,29,21.20
2016,08,17,16,30,21.30
2016,08,17,16,31,21.40
2016,08,17,16,32,21.40
2016,08,17,16,33,21.40
2016,08,17,16,34,21.40
2016,08,17,16,35,21.50
2016,08,17,16,36,21.60
2016,08,17,16,37,21.70
2016,08,17,16,38,21.90
2016,08,17,16,39,21.90
2016,08,17,16,40,21.90
2016,08,17,16,41,21.70
2016,08,17,16,42,21.50
2016,08,17,16,43,21.20
2016,08,17,16,44,21.10
2016,08,17,16,45,21.10
2016,08,17,16,46,21.10
2016,08,17,16,47,21.00
2016,08,17,16,48,21.00
2016,08,17,16,49,20.90
2016,08,17,16,50,20.90
2016,08,17,16,51,20.90
2016,08,17,16,52,20.90
2016,08,17,16,53,20.80
2016,08,17,16,54,20.80
2016,08,17,16,55,20.80
2016,08,17,16,56,20.80
2016,08,17,16,57,20.80
2016,08,17,16,58,20.90
2016,08,17,16,59,20.90
2016,08,17,17,00,20.80
2016,08,17,17,01,20.70
2016,08,17,17,02,20.60
2016,08,17,17,03,20.50
2016,08,17,17,04,20.20
2016,08,17,17,05,20.00
2016,08,17,17,06,19.80
2016,08,17,17,07,19.60
2016,08,17,17,08,19.50
2016,08,17,17,09,19.30
2016,08,17,17,10,19.10
2016,08,17,17,11,19.00
2016,08,17,17,12,18.90
2016,08,17,17,13,18.90
2016,08,17,17,14,18.90
2016,08,17,17,15,18.90
2016,08,17,17,16,19.00
2016,08,17,17,17,19.00
2016,08,17,17,18,18.90
2016,08,17,17,19,19.00
2016,08,17,17,20,18.90
2016,08,17,17,21,18.90
2016,08,17,17,22,18.90
2016,08,17,17,23,18.80
2016,08,17,17,24,18.80
2016,08,17,17,25,18.80
2016,08,17,17,26,18.80
2016,08,17,17,27,18.80
2016,08,17,17,28,18.70
2016,08,17,17,29,18.60
2016,08,17,17,30,18.50
2016,08,17,17,31,18.30
2016,08,17,17,32,18.10
2016,08,17,17,33,18.00
2016,08,17,17,34,17.90
2016,08,17,17,35,17.80
2016,08,17,17,36,17.70